Regional Weather Roundup
Issued by NWS Albany, NY

Home | Current Version | Previous Version | Text Only | Print | Product List | Glossary On
Versions: 1 2 3 4 5 6 7 8 9 10 11 12 13 14 15 16 17 18 19 20 21 22 23 24 25 26 27 28 29 30 31 32 33 34 35 36 37 38 39 40 41 42 43 44 45 46 47 48 49 50
000
ASUS41 KALY 011010
RWRALY

NEW YORK STATE HOURLY WEATHER ROUNDUP
NATIONAL WEATHER SERVICE ALBANY NY
500 AM EST SUN MAR 01 2015

NOTE: "FAIR" INDICATES FEW OR NO CLOUDS BELOW 12,000 FEET WITH NO
SIGNIFICANT WEATHER AND/OR NO OBSTRUCTIONS TO VISIBILITY.

NYZ032-033-038>043-046>054-057>066-NYZ062>081-011100-
EAST


CITY           SKY/WX    TMP DP  RH WIND       PRES   REMARKS
ALBANY         CLOUDY     4  -3  73 CALM      30.66F
GLENS FALLS    PTCLDY    -4 -11  72 CALM      30.65F
POUGHKEEPSIE   CLOUDY     7  -1  70 CALM      30.69R
NEWBURGH       MOCLDY    10   5  79 CALM      30.66R
MONTGOMERY     CLOUDY     6  -1  73 CALM      30.65R
WHITE PLAINS   FAIR      12   3  67 NW3       30.65R
ISLIP          CLEAR     15   7  70 CALM      30.68R
NEW YORK CITY  PTCLDY    24  10  55 CALM      30.69R
CENTRAL PARK   PTCLDY    25   5  42 NW5       30.70R WCI  19
$$

NYZ005>009-017-018-044>046-055-056-011100-
CENTRAL


CITY           SKY/WX    TMP DP  RH WIND       PRES   REMARKS
FULTON         CLOUDY    11  -1  58 E5        30.56F WCI   3
SYRACUSE       CLOUDY     1  -2  85 E5        30.58S WCI  -8
ROME           CLOUDY     3  -3  76 SE5       30.63R WCI  -6
ELMIRA         LGT SNOW   9   3  77 CALM      30.55F
BINGHAMTON     CLOUDY    13  -2  51 S3        30.50S
MONTICELLO     CLOUDY     7   1  78 NE3       30.56S
$$

NYZ026>034-041>043-011100-
NORTH


CITY           SKY/WX    TMP DP  RH WIND       PRES   REMARKS
WATERTOWN      CLOUDY     5  -1  76 E3        30.57S
FORT DRUM      NOT AVBL
MASSENA        PTCLDY    -3  -9  75 CALM      30.61S
SARANAC LAKE     N/A    -17 -21  82 MISG      30.48S
PLATTSBURGH    PTCLDY    -4  -8  83 CALM      30.63F
$$

NYZ001>004-010>016-019>021-011100-
WEST


CITY           SKY/WX    TMP DP  RH WIND       PRES   REMARKS
NIAGARA FALLS  CLOUDY    10   3  73 E3        30.47F
BUFFALO        FLURRIES  15   4  61 S5        30.47F WCI   8
DUNKIRK        LGT SNOW  19  16  88 S6        30.47F FOG     WCI  11
JAMESTOWN      CLOUDY    16  12  86 S6        30.38F WCI   7
WELLSVILLE     LGT SNOW  15  11  83 S6        30.40F FOG     WCI   6
ROCHESTER      CLOUDY    10   1  67 CALM      30.51F
PENN YAN       LGT SNOW  17   6  62 S15       30.52S WCI   2
$$

             KEY
       WCI = WIND CHILL INDEX
       VSB = VISIBILITY
       HX  = HEAT INDEX
$$



USA.gov is the U.S. government's official web portal to all federal, state and local government web resources and services.